Location: Observatoire
(46.1952°N, 5.3391°E)
Time: 15:56:14
(UTC+01:00)

Courier 1B - Pass Details

Date: 22 February 2026
Orbit: 962 x 1208 km, 28.3° (Epoch: 5 March)

Event Time Altitude Azimuth Distance (km) Brightness Sun altitude
Rises 21:57:25 0° 247° (WSW) 3,910 11.1 -38.2°
Reaches altitude 10° 22:01:22 10° 226° (SW) 3,001 10.2 -38.7°
Enters shadow 22:02:01 12° 222° (SW) 2,891 10.0 -38.8°
